Regional Weather Roundup
Issued by NWS

Home | Current Version | Previous Version | Text Only | Print | Product List | Glossary Off
Versions: 1 2 3 4 5 6 7 8 9 10 11 12 13 14 15 16 17 18 19 20 21 22 23 24 25 26 27 28 29 30 31 32 33 34 35 36 37 38 39 40 41 42 43 44 45 46 47 48 49 50

000
ASUS45 KSLC 010510
RWRUT
UTAH REGIONAL WEATHER ROUNDUP
NATIONAL WEATHER SERVICE SALT LAKE CITY UT
1100 PM MDT FRI JUL 31 2015

UTZ001>011-023>025-010600-

NORTHERN UTAH

CITY           SKY/WX    TMP DP  RH WIND       PRES   REMARKS
BRIGHAM CITY   CLEAR     74  39  28 SE3       30.14S
HILL AFB       CLEAR     75  31  20 SE10      30.16S
LOGAN          CLEAR     68  44  42 VRB3      30.16R
OGDEN          CLEAR     73  34  23 S9        30.13S
PROVO AIRPORT  CLEAR     66  45  45 S7        30.15S
SALT LAKE CITY PTCLDY    76  33  21 S5        30.11S
VERNAL         PTCLDY    75  27  17 NW6       30.16S
WENDOVER       PTCLDY    79  30  17 NW3       30.14S
HEBER CITY     PTCLDY    59  37  44 SE5       30.24S
WEST JORDAN    CLEAR     75  28  17 CALM      30.16R

$$

UTZ012>022-026-027-010600-

SOUTHERN/CENTRAL UTAH

CITY           SKY/WX    TMP DP  RH WIND       PRES   REMARKS
BLANDING       CLOUDY    72  52  49 CALM      30.37S
BRYCE CANYON   CLOUDY    60  45  57 W8        30.42R
CEDAR CITY     CLOUDY    75  48  38 S5        30.24R
DELTA          PTCLDY    76  29  17 NE7       30.15S
HANKSVILLE     PTCLDY    84  45  24 SE5       30.13S
MILFORD        PTCLDY    79  49  34 S15       30.18R
MOAB/CYNLANDS  CLEAR     83  49  30 SE14      30.10S
PRICE          CLEAR     77  17  10 NW9       30.22S
ST GEORGE      PTCLDY    86  52  30 SE13      30.06R
KANAB          CLOUDY    72  54  53 E3        30.27S

$$

REGIONAL REPORTS     COLORADO/ARIZONA

CITY           SKY/WX    TMP DP  RH WIND       PRES   REMARKS
CRAIG, CO      PTCLDY    59  34  39 SE7       30.25R
GRAND JUNCTION CLEAR     77  44  30 SE12      30.15R
RIFLE          CLEAR     73  44  35 E3        30.21R
MONTROSE       MOCLDY    73  48  41 SE7       30.27S
CORTEZ         MOCLDY    64  61  90 CALM      30.31S
PAGE, AZ       MOCLDY    86  48  26 N6        30.14R
GRAND CANYON   CLOUDY    64  52  64 S5        30.37F
KINGMAN        CLOUDY    84  52  33 SE16      30.09F
FLAGSTAFF      CLOUDY    63  53  70 CALM      30.40F

$$

REGIONAL REPORTS    NEVADA/IDAHO/WYOMING

CITY           SKY/WX    TMP DP  RH WIND       PRES   REMARKS
LAS VEGAS, NV  CLOUDY    96  53  23 E5        29.93R HX  93
ELY            MOCLDY    69  27  20 S6        30.28R
ELKO           PTCLDY    76  19  11 E9        30.20R
POCATELLO, ID  CLEAR     65  34  31 E3        30.17S
BURLEY         CLEAR     65  44  46 S5        30.13R
EVANSTON, WY   CLEAR     69  26  20 N6        30.37S
ROCK SPRINGS     N/A     68  19  15 S5        30.30S
KEMMERER       CLEAR     63  30  29 NW9       30.38S

$$



USA.gov is the U.S. government's official web portal to all federal, state and local government web resources and services.